Content
SEND FEEDBACK

Daily
Averages
Monthly
Summary
United States of America

TAKOTNA, ALASKA


Home > North America > United States > Alaska
Elevation: 566 feet     Latitude: 62 53N     Longitude: 155 57W

WEATHER
 
SELECT A DAY
Number of Records: 212,097;   Date Range: 1/1/95 - 8/28/14
 
SHARE

PRINT THIS DATA

[ ← Previous Day ]
WEATHER ALMANAC - JANUARY 31, 2013
[ Next Day → ]
[ °C ]   °F
Weather ElementAverageHighLow
Temperature6.6 °F11.1 °F (1:55 pm)3.2 °F (12:28 am)
Dewpoint4.7 °F9.3 °F (1:55 pm)1 °F (12:55 am)
Humidity91.7 %95 % (6:55 pm)85 % (5:28 am)
Barometer29.99 in30.17 in (11:55 pm)29.79 in (12:28 am)
Wind Speed2.3 mph4.6 mph (10:55 pm)
Weather ElementAverage
Visibility8.3 mi
Wind DirectionSE (134.5 °)

Weather ElementTotal
Precipitation---
Heating Degree Days57.9 (Base 65)
Averaged from 31 records on January 31, 2013
WEATHER CONDITIONS BREAKOUT
WIND DIRECTION BREAKOUT
WEATHER BY HOUR - JANUARY 31, 2013
[ °C ]   °F
Local TimeTemperatureDewpointHumidityBarometerVisibilityWind DirectionWind SpeedGust SpeedPrecipitationEventsConditions
12:28 AM3.2 °F1.4 °F92 %29.79 in2.5 miNE (50°)2.3 mphSnowLight Snow
12:48 AM3.2 °F1.4 °F92 %29.80 in3.0 miNE (50°)2.3 mphSnowLight Snow
12:55 AM3.2 °F1.0 °F91 %29.80 in3.0 miENE (60°)2.3 mphSnowLight Snow
1:55 AM3.7 °F1.4 °F90 %29.82 in10.0 miSW (220°)2.3 mphSnowLight Snow
3:55 AM3.9 °F1.6 °F90 %29.87 in10.0 miSW (220°)3.5 mphSnowLight Snow
4:55 AM4.1 °F1.9 °F91 %29.88 in10.0 miVariable2.3 mphSnowLight Snow Showers
5:28 AM5.0 °F1.4 °F85 %29.89 in2.0 miSouth (170°)2.3 mphSnowLight Snow Showers
5:55 AM4.6 °F2.5 °F91 %29.89 in3.0 miCalmSnowLight Snow Showers
6:28 AM5.0 °F3.2 °F92 %29.91 in6.0 miSW (220°)2.3 mphSnowLight Snow
6:55 AM5.2 °F3.0 °F91 %29.91 in6.0 miSSW (200°)3.5 mphSnowLight Snow
7:55 AM5.5 °F3.7 °F92 %29.93 in10.0 miWSW (240°)3.5 mphSnowLight Snow
8:55 AM6.1 °F4.1 °F92 %29.96 in10.0 miSSW (210°)3.5 mphSnowLight Snow Showers
9:08 AM6.8 °F5.0 °F92 %29.96 in4.0 miSouth (180°)2.3 mphSnowLight Snow Showers
9:48 AM6.8 °F5.0 °F92 %29.97 in7.0 miNNW (340°)1.2 mphSnowLight Snow
9:55 AM6.8 °F5.0 °F92 %29.86 in10.0 miVariable1.2 mphSnowLight Snow
10:55 AM7.0 °F5.2 °F92 %30.00 in10.0 miVariable2.3 mphSnowLight Snow Showers
11:48 AM8.6 °F6.8 °F92 %30.01 in10.0 miNorth (350°)1.2 mphMostly Cloudy
11:55 AM8.2 °F6.4 °F92 %30.02 in10.0 miWNW (300°)1.2 mphMostly Cloudy
12:55 PM9.5 °F7.9 °F93 %30.04 in10.0 miEast (90°)1.2 mphOvercast
1:55 PM11.1 °F9.3 °F92 %30.06 in10.0 miVariable1.2 mphOvercast
2:55 PM9.9 °F8.2 °F93 %30.07 in10.0 miVariable2.3 mphSnowLight Snow Showers
3:48 PM10.4 °F8.6 °F92 %30.09 in10.0 miVariable1.2 mphClear
3:55 PM11.1 °F9.1 °F92 %30.09 in10.0 miSW (230°)2.3 mph0.00 inClear
4:55 PM9.1 °F7.2 °F92 %30.10 in10.0 miEast (100°)3.5 mphClear
5:55 PM8.2 °F6.4 °F92 %30.11 in10.0 miEast (100°)1.2 mphClear
6:55 PM8.1 °F6.8 °F95 %30.11 in10.0 miNNW (340°)2.3 mphClear
7:55 PM6.8 °F5.2 °F93 %30.12 in10.0 miNE (40°)3.5 mphClear
8:55 PM5.9 °F4.3 °F93 %30.14 in10.0 miNE (50°)3.5 mphClear
9:55 PM5.4 °F3.6 °F92 %30.14 in10.0 miNNE (20°)3.5 mphClear
10:55 PM6.1 °F4.3 °F92 %30.16 in10.0 miENE (60°)4.6 mphClear
11:55 PM6.6 °F4.8 °F92 %30.17 in10.0 miNNW (330°)2.3 mphClear
Hourly data recorded from PATL, located miles away from Takotna, Alaska







STORIES FROM OUR PARTNERS